| time (UTC) | temp F | wind direction | speed MPH | gust MPH | rain 1hr in | rain 24hr in | rain mn in | humidity % | barometer mb |
| 20260504050508 | 47 | 347 | 0.0 | 0.0 | 0.00 | 0.00 | 0.00 | 93 | 1009.3 |
| 20260504050005 | 47 | 345 | 0.0 | 0.0 | 0.00 | 0.00 | 0.00 | 93 | 1009.5 |
| 20260504045500 | 47 | 348 | 0.0 | 0.0 | 0.00 | 0.00 | 0.00 | 93 | 1009.5 |
| 20260504044957 | 48 | 351 | 0.0 | 0.0 | 0.00 | 0.00 | 0.00 | 93 | 1009.5 |
| 20260504044455 | 47 | 343 | 0.0 | 0.0 | 0.00 | 0.00 | 0.00 | 93 | 1009.6 |
| 20260504043952 | 47 | 342 | 0.0 | 0.0 | 0.00 | 0.00 | 0.00 | 93 | 1009.4 |
| 20260504043449 | 47 | 343 | 0.0 | 0.0 | 0.00 | 0.00 | 0.00 | 93 | 1009.4 |
| 20260504042946 | 48 | 342 | 0.0 | 0.0 | 0.00 | 0.00 | 0.00 | 93 | 1009.7 |
| 20260504042443 | 48 | 342 | 0.0 | 0.0 | 0.00 | 0.00 | 0.00 | 92 | 1009.4 |
| 20260504041940 | 48 | 343 | 0.0 | 0.0 | 0.00 | 0.00 | 0.00 | 92 | 1009.6 |
| 20260504041436 | 48 | 359 | 0.0 | 0.0 | 0.00 | 0.00 | 0.00 | 92 | 1009.7 |
| 20260504040931 | 48 | 343 | 0.0 | 0.0 | 0.00 | 0.00 | 0.00 | 92 | 1009.7 |
| 20260504040430 | 47 | 336 | 0.0 | 0.0 | 0.00 | 0.00 | 0.00 | 92 | 1009.7 |
| 20260504035925 | 47 | 336 | 0.0 | 0.0 | 0.00 | 0.01 | 0.01 | 92 | 1009.6 |
| 20260504035423 | 47 | 336 | 0.0 | 0.0 | 0.00 | 0.01 | 0.01 | 92 | 1009.5 |
| 20260504034919 | 48 | 337 | 0.0 | 0.0 | 0.00 | 0.01 | 0.01 | 92 | 1009.7 |
| 20260504034417 | 48 | 321 | 0.0 | 0.0 | 0.00 | 0.01 | 0.01 | 91 | 1009.6 |
| 20260504033914 | 48 | 333 | 0.0 | 0.0 | 0.00 | 0.01 | 0.01 | 91 | 1009.6 |
| 20260504033412 | 48 | 347 | 0.0 | 0.0 | 0.00 | 0.01 | 0.01 | 91 | 1009.8 |
| 20260504032908 | 48 | 4 | 0.0 | 0.0 | 0.00 | 0.01 | 0.01 | 90 | 1009.9 |
| 20260504032405 | 48 | 299 | 0.0 | 0.0 | 0.00 | 0.01 | 0.01 | 90 | 1009.8 |
| 20260504031902 | 48 | 334 | 0.0 | 0.0 | 0.00 | 0.01 | 0.01 | 90 | 1010.1 |
| 20260504031359 | 48 | 324 | 0.0 | 0.0 | 0.00 | 0.01 | 0.01 | 89 | 1010.3 |
| 20260504030855 | 48 | 324 | 0.0 | 0.0 | 0.00 | 0.01 | 0.01 | 89 | 1009.9 |
| 20260504030353 | 48 | 331 | 0.0 | 0.0 | 0.00 | 0.01 | 0.01 | 89 | 1009.9 |
| 20260504025849 | 48 | 339 | 0.0 | 0.0 | 0.00 | 0.01 | 0.01 | 88 | 1009.8 |
| 20260504025346 | 48 | 337 | 0.0 | 0.0 | 0.00 | 0.01 | 0.01 | 88 | 1009.8 |
| 20260504024842 | 49 | 343 | 0.0 | 0.0 | 0.00 | 0.01 | 0.01 | 88 | 1009.9 |
| 20260504024339 | 49 | 339 | 0.0 | 0.0 | 0.00 | 0.01 | 0.01 | 87 | 1009.9 |
| 20260504023836 | 49 | 351 | 0.0 | 0.0 | 0.00 | 0.01 | 0.01 | 86 | 1010.2 |
| 20260504023333 | 49 | 345 | 0.0 | 0.0 | 0.00 | 0.01 | 0.01 | 85 | 1010.4 |
| 20260504022828 | 49 | 343 | 0.0 | 0.0 | 0.00 | 0.01 | 0.01 | 85 | 1010.6 |
| 20260504022325 | 49 | 335 | 0.0 | 0.0 | 0.00 | 0.01 | 0.01 | 84 | 1010.8 |
| 20260504021821 | 49 | 334 | 0.0 | 0.0 | 0.00 | 0.01 | 0.01 | 84 | 1010.9 |
| 20260504021314 | 50 | 327 | 0.0 | 0.0 | 0.00 | 0.01 | 0.01 | 83 | 1010.6 |
| 20260504020810 | 50 | 323 | 0.0 | 0.0 | 0.00 | 0.01 | 0.01 | 82 | 1010.5 |
| 20260504020307 | 50 | 252 | 0.0 | 0.0 | 0.00 | 0.01 | 0.01 | 82 | 1010.6 |
| 20260504015803 | 50 | 332 | 0.0 | 0.0 | 0.07 | 0.01 | 0.01 | 81 | 1011.0 |
| 20260504015259 | 51 | 290 | 1.0 | 1.0 | 0.07 | 0.01 | 0.01 | 79 | 1010.8 |
| 20260504014755 | 51 | 274 | 1.0 | 2.0 | 0.00 | 0.00 | 0.00 | 78 | 1011.0 |
| 20260504014252 | 51 | 174 | 3.0 | 6.0 | 0.00 | 0.00 | 0.00 | 76 | 1011.1 |
| 20260504013750 | 51 | 319 | 2.0 | 3.0 | 0.00 | 0.00 | 0.00 | 75 | 1011.2 |
| 20260504013247 | 51 | 271 | 0.0 | 0.0 | 0.00 | 0.00 | 0.00 | 74 | 1010.8 |
| 20260504012743 | 52 | 297 | 0.0 | 0.0 | 0.00 | 0.00 | 0.00 | 74 | 1010.6 |
| 20260504012241 | 52 | 309 | 0.0 | 1.0 | 0.00 | 0.00 | 0.00 | 73 | 1010.5 |
| 20260504011738 | 52 | 22 | 0.0 | 1.0 | 0.00 | 0.00 | 0.00 | 72 | 1010.7 |
| 20260504011235 | 52 | 75 | 0.0 | 1.0 | 0.00 | 0.00 | 0.00 | 72 | 1010.4 |
| 20260504010731 | 52 | 56 | 0.0 | 0.0 | 0.00 | 0.00 | 0.00 | 72 | 1010.3 |
| 20260504010227 | 52 | 115 | 0.0 | 0.0 | 0.00 | 0.00 | 0.00 | 71 | 1010.5 |
| 20260504005724 | 53 | 300 | 1.0 | 2.0 | 0.00 | 0.00 | 0.00 | 69 | 1010.5 |
| 20260504005221 | 53 | 282 | 0.0 | 1.0 | 0.00 | 0.00 | 0.00 | 67 | 1010.3 |
| 20260504004718 | 54 | 205 | 2.0 | 3.0 | 0.00 | 0.00 | 0.00 | 64 | 1010.1 |
| 20260504004215 | 54 | 263 | 0.0 | 0.0 | 0.00 | 0.00 | 0.00 | 62 | 1010.2 |
| 20260504003712 | 54 | 179 | 4.0 | 8.0 | 0.00 | 0.00 | 0.00 | 61 | 1009.9 |
| 20260504003209 | 55 | 331 | 4.0 | 6.0 | 0.00 | 0.00 | 0.00 | 60 | 1009.9 |
| 20260504002706 | 55 | 289 | 0.0 | 1.0 | 0.00 | 0.00 | 0.00 | 57 | 1009.9 |
| 20260504002203 | 54 | 280 | 2.0 | 3.0 | 0.00 | 0.00 | 0.00 | 59 | 1009.9 |
| 20260504001701 | 54 | 240 | 0.0 | 0.0 | 0.00 | 0.00 | 0.00 | 58 | 1009.6 |
| 20260504001156 | 54 | 343 | 0.0 | 0.0 | 0.00 | 0.00 | 0.00 | 59 | 1009.6 |
| 20260504000653 | 54 | 18 | 0.0 | 0.0 | 0.00 | 0.00 | 0.00 | 59 | 1009.5 |
| 20260504000151 | 54 | 357 | 0.0 | 0.0 | 0.00 | 0.00 | 0.00 | 58 | 1009.7 |
| 20260503235649 | 54 | 245 | 0.0 | 1.0 | 0.00 | 0.00 | 0.00 | 57 | 1009.5 |
| 20260503235145 | 54 | 241 | 0.0 | 0.0 | 0.00 | 0.00 | 0.00 | 57 | 1009.5 |
| 20260503234644 | 54 | 16 | 0.0 | 0.0 | 0.00 | 0.00 | 0.00 | 57 | 1009.4 |
| 20260503234142 | 54 | 264 | 0.0 | 0.0 | 0.00 | 0.00 | 0.00 | 58 | 1009.6 |
| 20260503233638 | 54 | 303 | 0.0 | 0.0 | 0.00 | 0.00 | 0.00 | 58 | 1009.8 |
| 20260503233134 | 54 | 352 | 1.0 | 2.0 | 0.00 | 0.00 | 0.00 | 57 | 1009.8 |
| 20260503232631 | 54 | 204 | 1.0 | 2.0 | 0.00 | 0.00 | 0.00 | 56 | 1010.0 |
| 20260503232128 | 55 | 339 | 1.0 | 2.0 | 0.00 | 0.00 | 0.00 | 56 | 1010.2 |
| 20260503231626 | 55 | 106 | 0.0 | 0.0 | 0.00 | 0.00 | 0.00 | 56 | 1010.0 |
| 20260503231122 | 55 | 344 | 0.0 | 0.0 | 0.00 | 0.00 | 0.00 | 54 | 1010.2 |
| 20260503230619 | 55 | 307 | 1.0 | 1.0 | 0.00 | 0.00 | 0.00 | 54 | 1009.9 |
| 20260503230117 | 55 | 287 | 1.0 | 2.0 | 0.00 | 0.00 | 0.00 | 52 | 1010.2 |
| 20260503225614 | 55 | 275 | 0.0 | 0.0 | 0.00 | 0.00 | 0.00 | 53 | 1010.0 |
| 20260503225113 | 55 | 324 | 0.0 | 0.0 | 0.00 | 0.00 | 0.00 | 51 | 1009.8 |
| 20260503224611 | 56 | 331 | 0.0 | 0.0 | 0.00 | 0.00 | 0.00 | 52 | 1009.8 |
| 20260503224109 | 56 | 351 | 0.0 | 0.0 | 0.00 | 0.00 | 0.00 | 51 | 1009.6 |
| 20260503223607 | 56 | 353 | 0.0 | 0.0 | 0.00 | 0.00 | 0.00 | 51 | 1009.8 |
| 20260503223102 | 56 | 235 | 1.0 | 2.0 | 0.00 | 0.00 | 0.00 | 49 | 1009.5 |
| 20260503222600 | 57 | 178 | 2.0 | 5.0 | 0.00 | 0.00 | 0.00 | 48 | 1009.5 |
| 20260503222058 | 57 | 39 | 0.0 | 0.0 | 0.00 | 0.00 | 0.00 | 51 | 1009.6 |
| 20260503221556 | 57 | 12 | 0.0 | 0.0 | 0.00 | 0.00 | 0.00 | 50 | 1009.7 |
| 20260503221053 | 56 | 358 | 0.0 | 0.0 | 0.00 | 0.00 | 0.00 | 50 | 1009.7 |
| 20260503220549 | 56 | 247 | 1.0 | 2.0 | 0.00 | 0.00 | 0.00 | 50 | 1009.7 |
| 20260503220046 | 56 | 18 | 0.0 | 0.0 | 0.00 | 0.00 | 0.00 | 50 | 1009.8 |
| 20260503215543 | 56 | 346 | 0.0 | 0.0 | 0.00 | 0.00 | 0.00 | 52 | 1009.7 |
| 20260503215040 | 57 | 337 | 2.0 | 3.0 | 0.00 | 0.00 | 0.00 | 50 | 1009.8 |
| 20260503214539 | 56 | 134 | 1.0 | 1.0 | 0.00 | 0.00 | 0.00 | 50 | 1009.7 |
| 20260503214035 | 56 | 347 | 0.0 | 0.0 | 0.00 | 0.00 | 0.00 | 52 | 1009.7 |
| 20260503213533 | 56 | 294 | 3.0 | 6.0 | 0.00 | 0.00 | 0.00 | 51 | 1009.7 |
| 20260503213029 | 56 | 247 | 0.0 | 0.0 | 0.00 | 0.00 | 0.00 | 52 | 1009.6 |
| 20260503212527 | 56 | 31 | 2.0 | 5.0 | 0.00 | 0.00 | 0.00 | 52 | 1009.6 |
| 20260503212024 | 56 | 201 | 0.0 | 0.0 | 0.00 | 0.00 | 0.00 | 53 | 1009.8 |
| 20260503211521 | 57 | 284 | 1.0 | 2.0 | 0.00 | 0.00 | 0.00 | 50 | 1009.8 |
| 20260503211017 | 57 | 213 | 0.0 | 0.0 | 0.00 | 0.00 | 0.00 | 50 | 1009.8 |
| 20260503210514 | 58 | 211 | 5.0 | 8.0 | 0.00 | 0.00 | 0.00 | 47 | 1010.0 |
| 20260503210009 | 58 | 300 | 3.0 | 3.0 | 0.00 | 0.00 | 0.00 | 49 | 1009.7 |
| 20260503205506 | 57 | 272 | 0.0 | 1.0 | 0.00 | 0.00 | 0.00 | 49 | 1010.1 |
| 20260503205003 | 57 | 309 | 2.0 | 3.0 | 0.00 | 0.00 | 0.00 | 49 | 1010.1 |
| 20260503204500 | 57 | 302 | 0.0 | 1.0 | 0.00 | 0.00 | 0.00 | 48 | 1009.8 |
| 20260503203956 | 58 | 336 | 0.0 | 1.0 | 0.00 | 0.00 | 0.00 | 47 | 1010.0 |
| 20260503203454 | 58 | 318 | 1.0 | 2.0 | 0.00 | 0.00 | 0.00 | 46 | 1010.1 |
| 20260503202950 | 59 | 349 | 0.0 | 0.0 | 0.00 | 0.00 | 0.00 | 47 | 1010.1 |
| 20260503202449 | 58 | 250 | 1.0 | 1.0 | 0.00 | 0.00 | 0.00 | 48 | 1010.3 |
| 20260503201947 | 57 | 35 | 0.0 | 1.0 | 0.00 | 0.00 | 0.00 | 48 | 1010.1 |
| 20260503201444 | 57 | 55 | 5.0 | 6.0 | 0.00 | 0.00 | 0.00 | 45 | 1010.2 |
| 20260503200941 | 56 | 298 | 0.0 | 0.0 | 0.00 | 0.00 | 0.00 | 48 | 1010.5 |
| 20260503200437 | 55 | 292 | 1.0 | 2.0 | 0.00 | 0.00 | 0.00 | 48 | 1010.3 |
| 20260503195934 | 55 | 312 | 3.0 | 5.0 | 0.00 | 0.00 | 0.00 | 48 | 1010.4 |
| 20260503195432 | 55 | 280 | 1.0 | 2.0 | 0.00 | 0.00 | 0.00 | 48 | 1010.5 |
| 20260503194927 | 55 | 178 | 0.0 | 1.0 | 0.00 | 0.00 | 0.00 | 48 | 1010.5 |
| 20260503194425 | 55 | 303 | 0.0 | 1.0 | 0.00 | 0.00 | 0.00 | 47 | 1010.5 |
| 20260503193920 | 55 | 9 | 0.0 | 0.0 | 0.00 | 0.00 | 0.00 | 48 | 1010.5 |
| 20260503193416 | 56 | 261 | 0.0 | 1.0 | 0.00 | 0.00 | 0.00 | 48 | 1010.5 |
| 20260503192912 | 56 | 340 | 1.0 | 1.0 | 0.00 | 0.00 | 0.00 | 49 | 1010.7 |
| 20260503192408 | 56 | 321 | 0.0 | 0.0 | 0.00 | 0.00 | 0.00 | 46 | 1010.4 |
| 20260503191904 | 55 | 286 | 0.0 | 0.0 | 0.00 | 0.00 | 0.00 | 47 | 1010.7 |
| 20260503191402 | 56 | 319 | 1.0 | 7.0 | 0.00 | 0.00 | 0.00 | 46 | 1010.8 |
| 20260503190858 | 56 | 317 | 1.0 | 2.0 | 0.00 | 0.00 | 0.00 | 45 | 1010.7 |
| 20260503190355 | 56 | 229 | 1.0 | 2.0 | 0.00 | 0.00 | 0.00 | 43 | 1010.8 |
| 20260503185852 | 56 | 170 | 3.0 | 3.0 | 0.00 | 0.00 | 0.00 | 41 | 1010.8 |
| 20260503185349 | 56 | 283 | 2.0 | 3.0 | 0.00 | 0.00 | 0.00 | 44 | 1010.9 |
| 20260503184848 | 57 | 282 | 2.0 | 2.0 | 0.00 | 0.00 | 0.00 | 45 | 1010.8 |
| 20260503184344 | 57 | 286 | 1.0 | 3.0 | 0.00 | 0.00 | 0.00 | 43 | 1011.0 |
| 20260503183840 | 55 | 260 | 0.0 | 0.0 | 0.00 | 0.00 | 0.00 | 43 | 1011.1 |
| 20260503183338 | 55 | 245 | 6.0 | 8.0 | 0.00 | 0.00 | 0.00 | 44 | 1011.2 |
| 20260503182835 | 57 | 290 | 1.0 | 3.0 | 0.00 | 0.00 | 0.00 | 45 | 1011.1 |
| 20260503182334 | 56 | 346 | 1.0 | 2.0 | 0.00 | 0.00 | 0.00 | 44 | 1011.1 |
| 20260503181831 | 57 | 201 | 2.0 | 3.0 | 0.00 | 0.00 | 0.00 | 40 | 1011.3 |
| 20260503181328 | 57 | 261 | 1.0 | 2.0 | 0.00 | 0.00 | 0.00 | 44 | 1011.4 |
| 20260503180824 | 57 | 295 | 0.0 | 0.0 | 0.00 | 0.00 | 0.00 | 44 | 1011.5 |
| 20260503180322 | 57 | 359 | 1.0 | 1.0 | 0.00 | 0.00 | 0.00 | 42 | 1011.5 |
| 20260503175818 | 56 | 189 | 0.0 | 1.0 | 0.00 | 0.00 | 0.00 | 42 | 1011.6 |
| 20260503175316 | 56 | 355 | 1.0 | 3.0 | 0.00 | 0.00 | 0.00 | 44 | 1011.5 |
| 20260503174811 | 56 | 302 | 6.0 | 7.0 | 0.00 | 0.00 | 0.00 | 41 | 1011.7 |
| 20260503174310 | 55 | 54 | 5.0 | 7.0 | 0.00 | 0.00 | 0.00 | 42 | 1011.9 |
| 20260503173806 | 55 | 216 | 1.0 | 1.0 | 0.00 | 0.00 | 0.00 | 40 | 1012.0 |
| 20260503173302 | 55 | 344 | 1.0 | 1.0 | 0.00 | 0.00 | 0.00 | 45 | 1012.0 |
| 20260503172759 | 55 | 306 | 3.0 | 3.0 | 0.00 | 0.00 | 0.00 | 44 | 1011.8 |
| 20260503172256 | 55 | 304 | 3.0 | 3.0 | 0.00 | 0.00 | 0.00 | 43 | 1012.3 |
| 20260503171752 | 54 | 277 | 0.0 | 0.0 | 0.00 | 0.00 | 0.00 | 45 | 1011.9 |
| 20260503171249 | 55 | 320 | 0.0 | 1.0 | 0.00 | 0.00 | 0.00 | 42 | 1012.1 |
| 20260503170746 | 55 | 322 | 0.0 | 1.0 | 0.00 | 0.00 | 0.00 | 46 | 1012.1 |
| 20260503170243 | 55 | 191 | 0.0 | 0.0 | 0.00 | 0.00 | 0.00 | 51 | 1012.2 |
| 20260503160205 | 53 | 350 | 2.0 | 2.0 | 0.00 | 0.00 | 0.00 | 46 | 1013.5 |
| 20260503150635 | 51 | 292 | 0.0 | 0.0 | 0.00 | 0.00 | 0.00 | 49 | 1013.9 |
| 20260503150131 | 51 | 2 | 1.0 | 2.0 | 0.00 | 0.00 | 0.00 | 50 | 1013.7 |
| 20260503131019 | 47 | 134 | 0.0 | 0.0 | 0.00 | 0.00 | 0.00 | 72 | 1014.5 |
| 20260503130516 | 46 | 332 | 1.0 | 3.0 | 0.00 | 0.00 | 0.00 | 71 | 1014.4 |
| 20260503110413 | 39 | 5 | 0.0 | 0.0 | 0.00 | 0.00 | 0.00 | 87 | 1013.8 |
| 20260503090303 | 38 | 310 | 0.0 | 0.0 | 0.00 | 0.00 | 0.00 | 88 | 1013.6 |
| 20260503081237 | 38 | 318 | 0.0 | 0.0 | 0.00 | 0.00 | 0.00 | 92 | 1013.8 |
| 20260503080732 | 38 | 320 | 0.0 | 0.0 | 0.00 | 0.00 | 0.00 | 92 | 1013.7 |
| 20260503080230 | 38 | 299 | 0.0 | 0.0 | 0.00 | 0.00 | 0.00 | 92 | 1013.8 |
| 20260503072706 | 38 | 308 | 0.0 | 0.0 | 0.00 | 0.00 | 0.00 | 93 | 1013.2 |
| 20260503072203 | 38 | 329 | 0.0 | 0.0 | 0.00 | 0.00 | 0.00 | 93 | 1013.5 |
| 20260503071700 | 38 | 300 | 0.0 | 0.0 | 0.00 | 0.00 | 0.00 | 93 | 1013.8 |
| 20260503071156 | 38 | 323 | 0.0 | 0.0 | 0.00 | 0.00 | 0.00 | 93 | 1013.7 |
| 20260503070653 | 38 | 307 | 0.0 | 0.0 | 0.00 | 0.00 | 0.00 | 93 | 1013.5 |
| 20260503070152 | 38 | 224 | 0.0 | 0.0 | 0.00 | 0.00 | 0.00 | 94 | 1013.5 |